[[{"header":{"parameterUnit":"m.s-1","parameterCategory":2,"la1":30.2991,"la2":30.254,"lo1":-89.0895,"lo2":-89.0444,"dy":0.0017,"dx":0.0017,"nx":28,"ny":28,"refTime":"2024-05-23T09:00:00:Z","depth":"0","parameterNumber":2,"parameterNumberName":"U-component_of_CURRENTS"},"data":[0,0,0,0,0,0,0,0,0,0,0,0,0,0,0,0,0,0,0,0,0,0,0,0,0,0,0,0,0,0,0,0,0,0,0,0,0,0,0,0,0,0,0,0,0,0,0,0,0,0,0,0,0,0,0,0,0,0,0.371,0.3711,0,0.3761,0.3761,0.3761,0.3751,0.3751,0.375,0.3749,0.3763,0.3764,0.3765,0,0,0,0,0,0,0,0,0,0,0,0,0,0.364,0.3641,0.371,0.3711,0.3712,0.376,0.3761,0.3761,0.3752,0.3751,0.375,0.3749,0.3763,0.3764,0.3765,0,0,0,0,0,0,0,0,0,0,0,0,0,0.3676,0.3641,0.371,0.3714,0.3715,0.376,0.3761,0.3762,0.3752,0.3751,0.375,0.3749,0.3762,0.3764,0.3765,0.3797,0,0,0.377,0.3771,0,0,0,0,0,0,0,0,0.3674,0.3678,0.3713,0.3714,0.3715,0.375,0.3741,0.3772,0.3752,0.3736,0.3749,0.3748,0.3758,0.3759,0.3769,0.3797,0.3798,0.377,0.3771,0.3772,0.3772,0,0,0,0,0,0,0,0.3672,0.3677,0.3728,0.3714,0.3715,0.3726,0.3729,0.3747,0.375,0.3737,0.3737,0.3746,0.3757,0.3767,0.3769,0.3798,0.377,0.3771,0.3772,0.3773,0.3919,0.3921,0,0,0,0,0,0,0.3669,0.3674,0.3726,0.373,0.3694,0.3728,0.3732,0.3738,0.375,0.3752,0.3747,0.3746,0.3765,0.3767,0.3769,0.3855,0.3772,0.3773,0.3774,0.3916,0.3919,0.3922,0,0,0,0,0,0,0.3667,0.3673,0.3724,0.3705,0.3712,0.373,0.3738,0.374,0.3755,0.3759,0.3759,0.376,0.3765,0.3767,0.3806,0.3853,0.3774,0.3775,0.3912,0.3917,0.3921,0.3995,0,0,0,0,0,0,0.3665,0.3672,0.3678,0.3704,0.3713,0.376,0.3739,0.3742,0.3763,0.3762,0.3771,0.377,0.3764,0.3804,0.3807,0.3854,0.3777,0.3909,0.3914,0.392,0.3988,0.4001,0.4012,0,0,0,0,0,0.3662,0.3676,0.3678,0.3685,0.372,0.3761,0.3767,0.3774,0.3765,0.3781,0.3794,0.377,0.3841,0.3807,0.3811,0.3859,0.3906,0.3913,0.3919,0.3983,0.3998,0.4011,0,0,0,0,0,0,0.3648,0.3678,0.368,0.3701,0.3733,0.376,0.3777,0.3784,0.3807,0.3806,0.38,0.3803,0.386,0.3853,0.3816,0.3921,0.3874,0.3881,0.3921,0.3936,0.3947,0.395,0.3778,0,0,0,0,0,0.365,0.3667,0.3699,0.3718,0.3735,0.3758,0.3775,0.3786,0.381,0.3819,0.3827,0.385,0.3892,0.3905,0.3934,0.3983,0.4017,0.4021,0.4033,0.4042,0.4051,0.4171,0.4194,0.3944,0.3944,0.3944,0,0,0.3649,0.3669,0.3678,0.3717,0.3739,0.3778,0.3766,0.3802,0.3839,0.3818,0.3866,0.3889,0.3916,0.3978,0.4003,0.3975,0.4132,0.4051,0.4059,0.4062,0.4181,0.4205,0.4227,0.3949,0.3948,0.3947,0,0,0.3667,0.3677,0.3702,0.3732,0.3775,0.3797,0.3811,0.3848,0.3869,0.392,0.393,0.3983,0.4021,0.4064,0.4088,0.4184,0.4193,0.4193,0.4249,0.4366,0.4388,0.4407,0.4477,0.4502,0.4195,0.4195,0.4195,0,0.3668,0.3703,0.3718,0.3756,0.379,0.3808,0.3855,0.3885,0.3931,0.3983,0.3943,0.4075,0.4069,0.4193,0.4207,0.421,0.4264,0.4187,0.4381,0.4401,0.442,0.4487,0.4514,0.42,0.4199,0.4199,0.4198,0,0.3712,0.374,0.3761,0.3814,0.3853,0.3897,0.3943,0.3994,0.4017,0.4061,0.4179,0.4192,0.4282,0.4285,0.4257,0.4402,0.4393,0.4385,0.4341,0.4449,0.4513,0.454,0.4206,0.4204,0.4203,0.4202,0,0,0.3735,0.378,0.3791,0.3829,0.3891,0.3936,0.4013,0.4115,0.4205,0.4241,0.4369,0.4411,0.444,0.447,0.4474,0.4534,0.4675,0.4501,0.4505,0.4562,0.492,0.484,0.486,0.471,0.4715,0.4719,0.491,0,0.3775,0.3836,0.3858,0.3943,0.3991,0.4044,0.4124,0.422,0.4296,0.442,0.4478,0.4587,0.451,0.4566,0.4624,0.4682,0.475,0.4622,0.4814,0.4819,0.4729,0.489,0.469,0.4839,0.4936,0.494,0.4944,0,0.3836,0.3868,0.3938,0.4033,0.4062,0.4116,0.4284,0.4359,0.453,0.4596,0.4724,0.4777,0.4899,0.48,0.4972,0.4902,0.4913,0.4926,0.4935,0.4851,0.4789,0.475,0.4883,0.4783,0.4984,0.4981,0.4978,0,0.3873,0.3945,0.4,0.4028,0.4128,0.4194,0.4263,0.4424,0.4531,0.4728,0.4838,0.4991,0.5084,0.5155,0.5164,0.5101,0.5328,0.5262,0.5204,0.5197,0.5058,0.503,0.5108,0.5385,0.5384,0.5384,0.5383,0,0.3925,0.3978,0.4019,0.4055,0.4157,0.4227,0.4379,0.4478,0.4662,0.4811,0.4932,0.5077,0.5175,0.5303,0.5282,0.5343,0.5451,0.5253,0.5267,0.5076,0.5049,0.4976,0.4916,0.5391,0.5389,0.5388,0.5387,0,0.3958,0.3981,0.4054,0.4139,0.4173,0.4251,0.4408,0.4523,0.4699,0.4904,0.4978,0.5201,0.5369,0.5448,0.5574,0.5501,0.5409,0.5533,0.5274,0.5252,0.506,0.501,0.4894,0.4753,0.5525,0.5525,0.5524,0,0.3962,0.4005,0.4091,0.4128,0.4159,0.4273,0.4353,0.452,0.4635,0.4962,0.5049,0.5305,0.5434,0.5615,0.5566,0.5593,0.5416,0.5393,0.522,0.5064,0.5022,0.479,0.4661,0.5069,0.5065,0.5062,0.5059,0,0.3982,0.402,0.4071,0.4136,0.4203,0.4282,0.4396,0.4489,0.4704,0.4865,0.5072,0.5217,0.5421,0.5378,0.5436,0.5406,0.5142,0.5323,0.5257,0.4762,0.4422,0.4285,0.4905,0.5029,0.5032,0.5035,0.5036,0.5037,0.3989,0.4022,0.4085,0.4138,0.4199,0.4245,0.4257,0.4384,0.452,0.4674,0.4917,0.5009,0.5141,0.5197,0.5156,0.4983,0.4934,0.4816,0.48,0.4603,0.4359,0.489,0.4963,0.4966,0.4968,0.497,0.4971,0,0.397,0.4012,0.4074,0.4102,0.4097,0.4163,0.424,0.4206,0.4242,0.4434,0.4541,0.4641,0.4638,0.4712,0.4665,0.4501,0.4241,0.4386,0.4036,0.396,0.4547,0.442,0.4261,0.4261,0.4261,0.4261,0.4261,0.4261,0.3967,0.4,0.4018,0.3974,0.3974,0.3894,0.3883,0.3853,0.3915,0.3921,0.3947,0.407,0.4348,0.4429,0.4303,0.4182,0.3874,0.3663,0.3676,0.4132,0.417,0.4206,0.4075,0.3846,0.3846,0.2892,0.2885,0.288]},{"header":{"parameterUnit":"m.s-1","parameterCategory":2,"la1":30.2991,"la2":30.254,"lo1":-89.0895,"lo2":-89.0444,"dy":0.0017,"dx":0.0017,"nx":28,"ny":28,"refTime":"2024-05-23T09:00:00:Z","depth":"0","parameterNumber":3,"parameterNumberName":"V-component_of_CURRENTS"},"data":[0,0,0,0,0,0,0,0,0,0,0,0,0,0,0,0,0,0,0,0,0,0,0,0,0,0,0,0,0,0,0,0,0,0,0,0,0,0,0,0,0,0,0,0,0,0,0,0,0,0,0,0,0,0,0,0,0,0,0.0261,0.026,0,0.018,0.0179,0.0178,0.0123,0.0123,0.0122,0.0122,0.0024,0.0021,0.0019,0,0,0,0,0,0,0,0,0,0,0,0,0,0.0289,0.0289,0.0261,0.026,0.0259,0.018,0.0179,0.0177,0.0123,0.0123,0.0122,0.0122,0.0024,0.0022,0.0019,0,0,0,0,0,0,0,0,0,0,0,0,0,0.0248,0.0289,0.0261,0.0224,0.0219,0.018,0.0179,0.0177,0.0123,0.0123,0.0122,0.0122,0.0025,0.0022,0.0018,0.0004,0,0,0.0008,0.0006,0,0,0,0,0,0,0,0,0.0251,0.0247,0.023,0.0226,0.0221,0.0162,0.0152,0.0119,0.0123,0.0158,0.0122,0.0122,0.007,0.0062,0.0046,-0.0,-0.0004,0.0007,0.0005,0.0004,0.0003,0,0,0,0,0,0,0,0.0254,0.025,0.0228,0.0229,0.0224,0.0183,0.0178,0.0145,0.0116,0.0155,0.0151,0.0144,0.0067,0.005,0.0044,-0.0006,0.0007,0.0004,0.0002,0.0001,-0.0053,-0.0052,0,0,0,0,0,0,0.0271,0.0253,0.023,0.0225,0.0237,0.0184,0.0177,0.0181,0.0116,0.0107,0.0145,0.0142,0.0056,0.0048,0.004,0.0051,0.0004,0.0,-0.0002,-0.0054,-0.0053,-0.0052,0,0,0,0,0,0,0.0272,0.027,0.0233,0.0237,0.023,0.0184,0.0188,0.0179,0.0168,0.0109,0.0099,0.0144,0.0056,0.0045,0.0022,0.0045,-0.0001,-0.0005,-0.0055,-0.0053,-0.0052,0.0053,0,0,0,0,0,0,0.0274,0.0272,0.0279,0.0239,0.0231,0.0225,0.0188,0.0178,0.0165,0.016,0.0105,0.0095,0.0054,0.0028,0.0019,0.004,-0.0007,-0.0055,-0.0054,-0.0053,0.0048,0.0057,0.0065,0,0,0,0,0,0.0275,0.0294,0.028,0.0277,0.0243,0.0226,0.0218,0.0181,0.0165,0.0168,0.013,0.0097,0.003,0.0026,0.0015,0.0035,-0.0056,-0.0054,-0.0053,0.0045,0.0055,0.0065,0,0,0,0,0,0,0.0306,0.0289,0.0273,0.0284,0.0261,0.0217,0.0216,0.0192,0.0163,0.016,0.0104,0.0091,0.0076,0.0042,0.0039,0.0023,-0.0018,-0.0018,0.006,0.007,0.0078,0.0112,-0.001,0,0,0,0,0,0.0318,0.033,0.03,0.0307,0.0302,0.026,0.0248,0.0227,0.0196,0.0182,0.0143,0.0103,0.0073,0.0062,0.0023,0.002,-0.0009,0.0025,0.0033,0.0041,0.0061,0.0038,0.0047,-0.0047,-0.0047,-0.0047,0,0,0.033,0.0323,0.0327,0.0315,0.0293,0.0303,0.0252,0.0245,0.0255,0.0177,0.0176,0.0125,0.0075,0.0067,0.0058,0.0044,0.005,0.0043,0.005,0.0066,0.0041,0.005,0.0058,-0.0046,-0.0046,-0.0046,0,0,0.0369,0.0357,0.0383,0.0373,0.0355,0.0335,0.034,0.0305,0.0292,0.0278,0.0228,0.0201,0.0148,0.0127,0.0107,0.014,0.0088,0.0121,0.0201,0.0179,0.0187,0.0194,0.0166,0.017,0.0135,0.0135,0.0135,0,0.0382,0.0414,0.0385,0.0407,0.0412,0.036,0.0392,0.0372,0.0333,0.034,0.0293,0.0238,0.0183,0.0196,0.0197,0.0162,0.0135,0.017,0.0192,0.0198,0.0203,0.0173,0.0175,0.0141,0.014,0.0139,0.0139,0,0.0444,0.0466,0.048,0.0499,0.05,0.0515,0.0493,0.0495,0.0466,0.0444,0.0436,0.0359,0.034,0.0305,0.0254,0.0273,0.0237,0.0199,0.0173,0.0219,0.0184,0.0185,0.0148,0.0146,0.0145,0.0143,0,0,0.0482,0.0519,0.0524,0.0563,0.0553,0.0574,0.0594,0.0612,0.0661,0.0587,0.0642,0.0548,0.051,0.0485,0.0421,0.0386,0.0377,0.0313,0.0309,0.0297,0.0325,0.028,0.0275,0.0342,0.0342,0.0343,0.0285,0,0.0539,0.062,0.0613,0.0692,0.0738,0.0712,0.0755,0.0762,0.0749,0.0786,0.0703,0.0718,0.0581,0.0589,0.0528,0.043,0.0384,0.0396,0.0272,0.0269,0.0232,0.0276,0.0286,0.0234,0.0286,0.0286,0.0286,0,0.0608,0.0657,0.0751,0.0831,0.085,0.0892,0.0974,0.1002,0.1023,0.1016,0.0994,0.0936,0.0891,0.0767,0.0612,0.0626,0.0486,0.0383,0.0378,0.0304,0.0226,0.0195,0.0233,0.0013,0.0286,0.0286,0.0286,0,0.0686,0.0759,0.085,0.0871,0.0945,0.0999,0.1041,0.1081,0.1149,0.1181,0.1238,0.1145,0.1139,0.0953,0.0711,0.0677,0.0528,0.0463,0.0284,0.0279,0.0249,0.024,0.0073,0.0348,0.0349,0.0349,0.0349,0,0.0764,0.0837,0.0905,0.0961,0.1097,0.1108,0.1253,0.1281,0.1361,0.1484,0.1377,0.1453,0.1182,0.1057,0.0803,0.0554,0.0599,0.0315,0.027,0.0283,0.0278,0.0053,-0.0067,0.0347,0.0347,0.0347,0.0348,0,0.0844,0.088,0.1,0.11,0.1144,0.1248,0.1393,0.1502,0.1557,0.1719,0.1749,0.1699,0.1553,0.1247,0.0963,0.0704,0.0323,0.0339,0.0366,0.0325,-0.0038,-0.0151,-0.0368,-0.0461,0.0167,0.0166,0.0165,0,0.0894,0.0967,0.1109,0.1195,0.1249,0.1395,0.151,0.1597,0.1719,0.1884,0.198,0.1907,0.1877,0.1432,0.0967,0.0536,0.0296,0.0251,0.018,-0.0041,-0.02,-0.0297,-0.0366,0.0177,0.0176,0.0175,0.0174,0,0.0995,0.1046,0.1144,0.1317,0.1452,0.1613,0.1778,0.1908,0.2046,0.2195,0.2361,0.2362,0.1962,0.1543,0.0933,0.0626,0.0112,0.0222,-0.0005,-0.0198,-0.0313,-0.0429,0.0186,0.0167,0.0168,0.0169,0.0169,0.0169,0.1068,0.1155,0.1283,0.1449,0.1605,0.1808,0.196,0.2153,0.2383,0.2617,0.2609,0.2647,0.2059,0.125,0.0809,0.0043,0.004,-0.0193,-0.0308,-0.0383,-0.0487,0.0109,0.0034,0.0034,0.0034,0.0034,0.0034,0,0.1148,0.1247,0.1405,0.1602,0.1776,0.185,0.2124,0.2296,0.258,0.2778,0.2906,0.2633,0.1904,0.1174,0.0141,-0.0399,-0.0583,-0.0676,-0.0809,-0.0852,-0.0316,-0.0329,-0.0486,-0.0486,-0.0485,-0.0485,-0.0485,-0.0485,0.1196,0.1345,0.1423,0.1705,0.1849,0.2093,0.2256,0.253,0.2724,0.2969,0.2992,0.2946,0.2407,0.0612,-0.0609,-0.089,-0.1216,-0.1319,-0.1481,-0.1124,-0.1088,-0.1053,-0.1095,-0.1409,-0.141,-0.1952,-0.1958,-0.1962]}],[{"header":{"parameterUnit":"m.s-1","parameterCategory":2,"la1":30.2991,"la2":30.254,"lo1":-89.0895,"lo2":-89.0444,"dy":0.0017,"dx":0.0017,"nx":28,"ny":28,"refTime":"2024-05-23T09:00:00:Z","depth":"2","parameterNumber":2,"parameterNumberName":"U-component_of_CURRENTS"},"data":[0,0,0,0,0,0,0,0,0,0,0,0,0,0,0,0,0,0,0,0,0,0,0,0,0,0,0,0,0,0,0,0,0,0,0,0,0,0,0,0,0,0,0,0,0,0,0,0,0,0,0,0,0,0,0,0,0,0,0.3316,0.3317,0,0.3366,0.3366,0.3366,0.337,0.337,0.337,0.3369,0.3396,0.3397,0.3398,0,0,0,0,0,0,0,0,0,0,0,0,0,0.3245,0.3246,0.3316,0.3317,0.3318,0.3366,0.3366,0.3366,0.337,0.337,0.337,0.3369,0.3396,0.3397,0.3398,0,0,0,0,0,0,0,0,0,0,0,0,0,0.3281,0.3246,0.3316,0.3327,0.3329,0.3365,0.3366,0.3367,0.337,0.337,0.3369,0.3369,0.3396,0.3397,0.3399,0.3418,0,0,0.3403,0.3404,0,0,0,0,0,0,0,0,0.3279,0.3283,0.3325,0.3326,0.3328,0.3363,0.3351,0.3383,0.3371,0.3352,0.3369,0.3369,0.3385,0.3387,0.3395,0.3419,0.342,0.3403,0.3404,0.3405,0.3405,0,0,0,0,0,0,0,0.3276,0.3281,0.3333,0.3326,0.3328,0.3337,0.3341,0.3357,0.3368,0.3354,0.3355,0.3364,0.3385,0.3393,0.3395,0.3421,0.3403,0.3405,0.3406,0.3406,0.3539,0.3541,0,0,0,0,0,0,0.3275,0.3279,0.3332,0.3335,0.3305,0.3339,0.3343,0.3351,0.3369,0.3372,0.3364,0.3364,0.3391,0.3394,0.3396,0.348,0.3405,0.3406,0.3407,0.3536,0.3539,0.3542,0,0,0,0,0,0,0.3273,0.3279,0.333,0.331,0.3317,0.334,0.3349,0.3352,0.3373,0.3378,0.338,0.3384,0.3391,0.3394,0.3433,0.3479,0.3407,0.3408,0.3533,0.3537,0.3541,0.3609,0,0,0,0,0,0,0.3271,0.3278,0.3287,0.331,0.3318,0.3365,0.335,0.3353,0.338,0.338,0.3395,0.3396,0.3391,0.3431,0.3435,0.348,0.341,0.353,0.3535,0.354,0.3604,0.3615,0.3625,0,0,0,0,0,0.3268,0.3281,0.3287,0.3294,0.3329,0.3366,0.3372,0.3384,0.3382,0.34,0.3415,0.3397,0.3465,0.3434,0.3438,0.3484,0.3528,0.3534,0.3539,0.3599,0.3613,0.3625,0,0,0,0,0,0,0.3254,0.3284,0.3291,0.3312,0.3344,0.3368,0.3387,0.3397,0.3422,0.3426,0.3422,0.3426,0.3482,0.3477,0.3443,0.354,0.3497,0.3504,0.3541,0.3554,0.3565,0.3573,0.3411,0,0,0,0,0,0.3257,0.3276,0.3307,0.3328,0.3345,0.337,0.3388,0.3402,0.3426,0.3437,0.3448,0.3471,0.3509,0.3524,0.3549,0.3595,0.3618,0.3632,0.3642,0.3651,0.3663,0.3757,0.3777,0.3562,0.3561,0.3561,0,0,0.3257,0.3278,0.3288,0.3327,0.3351,0.3387,0.338,0.3418,0.3452,0.3436,0.3485,0.3508,0.3531,0.3588,0.3613,0.3588,0.3724,0.3658,0.3665,0.3673,0.3765,0.3786,0.3804,0.3565,0.3565,0.3564,0,0,0.3271,0.3288,0.3311,0.3342,0.3388,0.3408,0.3424,0.3462,0.3485,0.3535,0.3544,0.3596,0.3633,0.3669,0.369,0.3776,0.3779,0.3786,0.3842,0.3933,0.3951,0.3968,0.4016,0.4036,0.3788,0.3789,0.3789,0,0.3273,0.3305,0.3326,0.3362,0.3395,0.3421,0.3463,0.3493,0.354,0.3582,0.356,0.3675,0.3677,0.3778,0.38,0.38,0.3839,0.3787,0.3947,0.3963,0.3979,0.4024,0.4046,0.3793,0.3792,0.3792,0.3791,0,0.3307,0.3338,0.3358,0.3412,0.3449,0.3491,0.3538,0.3586,0.3615,0.3654,0.3758,0.3779,0.3856,0.3864,0.3849,0.3974,0.3961,0.395,0.391,0.4005,0.4046,0.4067,0.3798,0.3797,0.3796,0.3795,0,0,0.3304,0.3368,0.3378,0.3412,0.3482,0.3518,0.3593,0.3679,0.3751,0.3799,0.39,0.3958,0.399,0.4016,0.4026,0.4083,0.4205,0.4061,0.4064,0.41,0.4392,0.4316,0.4331,0.423,0.4234,0.4238,0.4372,0,0.333,0.3393,0.3427,0.3499,0.3539,0.36,0.3669,0.3753,0.3826,0.3927,0.3989,0.4084,0.4044,0.4097,0.4154,0.4204,0.4266,0.4168,0.4301,0.4305,0.4221,0.4355,0.4003,0.4089,0.4392,0.4396,0.4398,0,0.3358,0.3399,0.3467,0.3553,0.358,0.3631,0.377,0.3839,0.3987,0.4054,0.4171,0.4221,0.4337,0.4276,0.4426,0.4371,0.4392,0.4407,0.4413,0.4334,0.427,0.4048,0.4116,0.4433,0.443,0.4428,0.4425,0,0.3345,0.343,0.3484,0.3514,0.3616,0.3675,0.3743,0.3886,0.3977,0.4156,0.4247,0.4385,0.4468,0.454,0.4568,0.4524,0.4706,0.4654,0.4606,0.4599,0.432,0.4282,0.4766,0.4766,0.4766,0.4765,0.4765,0,0.3354,0.3399,0.3484,0.3513,0.3598,0.368,0.3802,0.3901,0.4071,0.4188,0.4316,0.4437,0.4542,0.4644,0.4648,0.4703,0.479,0.465,0.4652,0.4332,0.4296,0.4603,0.4582,0.477,0.4769,0.4768,0.4768,0,0.3319,0.3377,0.3443,0.3552,0.3589,0.3655,0.3812,0.39,0.4079,0.4242,0.431,0.4522,0.4663,0.4733,0.4853,0.4807,0.486,0.4846,0.4445,0.4398,0.4664,0.4646,0.483,0.4829,0.4828,0.4827,0.4827,0,0.3299,0.3339,0.3445,0.3483,0.353,0.3638,0.3702,0.3883,0.3985,0.4279,0.4346,0.4563,0.466,0.4821,0.4803,0.4832,0.4883,0.4506,0.4359,0.47,0.4683,0.4665,0.4649,0.4008,0.4001,0.3995,0.399,0,0.3276,0.3324,0.337,0.3443,0.3508,0.3576,0.3691,0.3767,0.3983,0.4118,0.4305,0.4418,0.46,0.4494,0.4554,0.4512,0.4476,0.4388,0.4889,0.405,0.3937,0.3916,0.3924,0.3937,0.3942,0.3946,0.3949,0.3951,0.325,0.3268,0.3334,0.3392,0.3468,0.3498,0.3487,0.3613,0.3728,0.3867,0.41,0.4147,0.4229,0.4163,0.4045,0.3964,0.4264,0.4056,0.4069,0.4089,0.3975,0.3867,0.383,0.3834,0.3838,0.3841,0.3844,0,0.3195,0.3222,0.3275,0.3293,0.3304,0.3409,0.3456,0.3397,0.342,0.3609,0.3713,0.3496,0.3471,0.3544,0.3355,0.3363,0.3266,0.3211,0.3048,0.3108,0.3159,0.2989,0.2586,0.2582,0.2577,0.2573,0,0,0.3169,0.3163,0.3177,0.3138,0.3166,0.3105,0.3101,0.302,0.3077,0.3049,0.3073,0.3359,0.35,0.3015,0.2951,0.2736,0.2884,0.2626,0.3653,0.3525,0.357,0.3688,0.3501,0,0,0,0,0]},{"header":{"parameterUnit":"m.s-1","parameterCategory":2,"la1":30.2991,"la2":30.254,"lo1":-89.0895,"lo2":-89.0444,"dy":0.0017,"dx":0.0017,"nx":28,"ny":28,"refTime":"2024-05-23T09:00:00:Z","depth":"2","parameterNumber":3,"parameterNumberName":"V-component_of_CURRENTS"},"data":[0,0,0,0,0,0,0,0,0,0,0,0,0,0,0,0,0,0,0,0,0,0,0,0,0,0,0,0,0,0,0,0,0,0,0,0,0,0,0,0,0,0,0,0,0,0,0,0,0,0,0,0,0,0,0,0,0,0,0.0127,0.0126,0,0.0054,0.0053,0.0052,0.0001,0.0001,0.0,0.0,-0.0089,-0.0091,-0.0093,0,0,0,0,0,0,0,0,0,0,0,0,0,0.0149,0.0149,0.0127,0.0126,0.0125,0.0054,0.0053,0.0051,0.0001,0.0001,0.0,0.0,-0.0088,-0.0091,-0.0093,0,0,0,0,0,0,0,0,0,0,0,0,0,0.0113,0.0149,0.0127,0.0092,0.0088,0.0054,0.0053,0.0051,0.0001,0.0001,0.0,-0.0,-0.0087,-0.009,-0.0093,-0.0105,0,0,-0.0103,-0.0105,0,0,0,0,0,0,0,0,0.0115,0.0112,0.0098,0.0094,0.009,0.0037,0.0028,-0.0001,0.0001,0.0033,0.0,-0.0,-0.0047,-0.0054,-0.0068,-0.0109,-0.0113,-0.0103,-0.0105,-0.0107,-0.0108,0,0,0,0,0,0,0,0.0118,0.0114,0.0096,0.0097,0.0092,0.0055,0.005,0.0022,-0.0005,0.003,0.0027,0.0021,-0.005,-0.0065,-0.007,-0.0114,-0.0103,-0.0106,-0.0108,-0.0109,-0.0152,-0.0152,0,0,0,0,0,0,0.0134,0.0117,0.0099,0.0094,0.0103,0.0055,0.005,0.0054,-0.0005,-0.0013,0.0021,0.0018,-0.0059,-0.0067,-0.0074,-0.0061,-0.0107,-0.011,-0.0111,-0.0153,-0.0152,-0.0151,0,0,0,0,0,0,0.0134,0.0133,0.0102,0.0104,0.0098,0.0056,0.006,0.0052,0.0043,-0.0011,-0.0021,0.0021,-0.006,-0.0069,-0.0088,-0.0066,-0.0111,-0.0114,-0.0154,-0.0153,-0.0152,-0.0056,0,0,0,0,0,0,0.0136,0.0134,0.0141,0.0106,0.0098,0.0096,0.0061,0.0051,0.004,0.0036,-0.0014,-0.0024,-0.0061,-0.0083,-0.0091,-0.0072,-0.0116,-0.0155,-0.0154,-0.0152,-0.006,-0.0051,-0.0044,0,0,0,0,0,0.0137,0.0156,0.0143,0.014,0.0111,0.0097,0.009,0.0057,0.0041,0.0045,0.001,-0.0022,-0.008,-0.0085,-0.0095,-0.0075,-0.0156,-0.0154,-0.0152,-0.0063,-0.0053,-0.0044,0,0,0,0,0,0,0.0166,0.0152,0.0136,0.0149,0.0129,0.0089,0.0089,0.0067,0.0041,0.0038,-0.0014,-0.0025,-0.0037,-0.0068,-0.0072,-0.0084,-0.0122,-0.0122,-0.0051,-0.0042,-0.0034,-0.0008,-0.0119,0,0,0,0,0,0.0178,0.019,0.0163,0.0172,0.0167,0.013,0.0119,0.01,0.0072,0.006,0.0024,-0.0012,-0.0039,-0.0049,-0.0083,-0.0085,-0.0123,-0.0079,-0.0071,-0.0064,-0.0049,-0.0087,-0.0081,-0.0146,-0.0146,-0.0146,0,0,0.019,0.0183,0.0188,0.0179,0.016,0.017,0.0123,0.0118,0.0128,0.0055,0.0056,0.001,-0.0036,-0.0043,-0.0049,-0.0063,-0.0067,-0.0062,-0.0056,-0.0044,-0.0084,-0.0078,-0.0073,-0.0145,-0.0145,-0.0145,0,0,0.0226,0.0217,0.0241,0.0235,0.0219,0.0201,0.0207,0.0175,0.0164,0.0154,0.0106,0.008,0.0036,0.0013,-0.0005,0.0027,-0.0031,0.0014,0.0083,0.0047,0.0052,0.0056,0.0012,0.0011,0.0026,0.0026,0.0026,0,0.0238,0.0269,0.0244,0.0266,0.0271,0.0225,0.0253,0.0238,0.0203,0.0204,0.0168,0.0112,0.0066,0.007,0.0076,0.0047,0.0011,0.0053,0.0058,0.0062,0.0064,0.0017,0.0016,0.0031,0.003,0.003,0.0029,0,0.0295,0.0318,0.0333,0.0351,0.0352,0.0368,0.0348,0.0349,0.0324,0.0301,0.0287,0.0221,0.0194,0.017,0.013,0.0136,0.0098,0.0067,0.0038,0.0077,0.0025,0.0021,0.0038,0.0036,0.0035,0.0033,0,0,0.0324,0.0367,0.0371,0.0403,0.0401,0.0415,0.0436,0.0445,0.0475,0.0419,0.0446,0.0378,0.0337,0.0314,0.026,0.0224,0.0199,0.0162,0.0158,0.0125,0.0112,0.0073,0.0065,0.0166,0.0166,0.0166,0.0066,0,0.0375,0.0449,0.0449,0.0517,0.0556,0.0534,0.0568,0.0568,0.055,0.0563,0.0491,0.049,0.0396,0.0393,0.034,0.024,0.0195,0.0229,0.0073,0.0069,0.0036,0.0062,0.0098,0.0011,0.0062,0.0062,0.0061,0,0.043,0.0478,0.056,0.0626,0.0642,0.0677,0.0728,0.0752,0.0749,0.0737,0.0707,0.0647,0.0598,0.0511,0.0358,0.0383,0.026,0.0167,0.016,0.0092,0.0024,-0.002,0.0001,0.0054,0.0055,0.0055,0.0056,0,0.048,0.0553,0.0631,0.065,0.0715,0.0756,0.079,0.0808,0.0859,0.0858,0.0885,0.0793,0.0771,0.0608,0.0403,0.0386,0.022,0.0172,0.0018,0.0013,-0.0002,-0.0008,0.0062,0.0062,0.0062,0.0062,0.0063,0,0.0537,0.0597,0.067,0.0715,0.0825,0.0836,0.0943,0.0962,0.1012,0.1098,0.099,0.1027,0.0794,0.0666,0.0457,0.023,0.0258,0.0038,-0.0009,0.003,0.0029,0.003,0.0028,0.0058,0.0059,0.006,0.0061,0,0.0579,0.0622,0.0724,0.0816,0.0857,0.0937,0.1061,0.1138,0.1168,0.1277,0.1292,0.1209,0.105,0.0787,0.0526,0.032,0.0096,0.0002,0.0059,0.002,-0.0104,-0.01,-0.0167,-0.0169,-0.0171,-0.0172,-0.0173,0,0.0611,0.0671,0.0803,0.0882,0.0933,0.1054,0.1149,0.1218,0.1313,0.14,0.1466,0.1351,0.129,0.0874,0.0503,0.0135,0.0082,-0.0085,-0.0114,-0.0085,-0.0124,-0.0118,-0.0112,-0.0104,-0.0104,-0.0105,-0.0105,0,0.0679,0.0725,0.0813,0.0975,0.1093,0.1232,0.1374,0.1477,0.1579,0.1664,0.1753,0.1712,0.1337,0.0976,0.0462,0.0213,-0.0025,-0.0106,-0.0079,-0.0049,-0.0033,-0.0069,-0.0064,-0.0109,-0.0109,-0.0109,-0.0108,-0.0108,0.0733,0.0805,0.0928,0.1082,0.1228,0.1408,0.1532,0.1685,0.1857,0.2,0.1952,0.1899,0.1493,0.0847,0.04,-0.0065,-0.0038,-0.0206,-0.0201,-0.0197,-0.0169,-0.0156,-0.0251,-0.0252,-0.0252,-0.0252,-0.0252,0,0.0807,0.0891,0.1031,0.1214,0.1377,0.1454,0.1684,0.1802,0.2012,0.213,0.2183,0.1801,0.139,0.0914,0.0233,-0.0179,-0.0205,-0.0317,-0.0253,-0.0246,-0.024,-0.0212,-0.0308,-0.0309,-0.0311,-0.0312,0,0,0.085,0.0984,0.1053,0.1316,0.1456,0.1681,0.1824,0.199,0.2121,0.2227,0.2213,0.2128,0.1559,0.1056,0.0491,0.0093,0.0018,0.001,0.0101,0.0253,0.0263,-0.0128,-0.0072,0,0,0,0,0]}],[{"header":{"parameterUnit":"m.s-1","parameterCategory":2,"la1":30.2991,"la2":30.254,"lo1":-89.0895,"lo2":-89.0444,"dy":0.0017,"dx":0.0017,"nx":28,"ny":28,"refTime":"2024-05-23T09:00:00:Z","depth":"4","parameterNumber":2,"parameterNumberName":"U-component_of_CURRENTS"},"data":[0,0,0,0,0,0,0,0,0,0,0,0,0,0,0,0,0,0,0,0,0,0,0,0,0,0,0,0,0,0,0,0,0,0,0,0,0,0,0,0,0,0,0,0,0,0,0,0,0,0,0,0,0,0,0,0,0,0,0.2191,0.2192,0,0.2279,0.228,0.2281,0.2353,0.2354,0.2354,0.2355,0.2464,0.2466,0.2468,0,0,0,0,0,0,0,0,0,0,0,0,0,0.208,0.2082,0.2191,0.2192,0.2194,0.2279,0.228,0.2281,0.2352,0.2354,0.2355,0.2356,0.2463,0.2466,0.2468,0,0,0,0,0,0,0,0,0,0,0,0,0,0.2142,0.2082,0.2191,0.2241,0.2247,0.2279,0.228,0.2282,0.2352,0.2354,0.2355,0.2356,0.2462,0.2465,0.2468,0.2459,0,0,0.2478,0.2479,0,0,0,0,0,0,0,0,0.2139,0.2146,0.2232,0.2238,0.2244,0.2308,0.2281,0.2343,0.2352,0.231,0.2355,0.2357,0.2414,0.2421,0.2431,0.2464,0.2469,0.2478,0.248,0.2481,0.2482,0,0,0,0,0,0,0,0.2134,0.2143,0.2224,0.2234,0.2241,0.2258,0.2268,0.2293,0.2352,0.2314,0.2319,0.2332,0.2417,0.2428,0.2434,0.247,0.2478,0.248,0.2482,0.2483,0.2653,0.2655,0,0,0,0,0,0,0.2127,0.2139,0.2221,0.2227,0.2196,0.2259,0.2271,0.2284,0.2351,0.2363,0.2331,0.2335,0.2422,0.2431,0.2439,0.2563,0.2481,0.2484,0.2485,0.265,0.2653,0.2656,0,0,0,0,0,0,0.2124,0.2133,0.2217,0.2186,0.2199,0.226,0.2275,0.2286,0.2345,0.2365,0.2377,0.2386,0.2424,0.2434,0.2508,0.2562,0.2485,0.2488,0.2647,0.2651,0.2655,0.2727,0,0,0,0,0,0,0.212,0.2132,0.2161,0.2186,0.22,0.2268,0.2274,0.2286,0.2349,0.2357,0.2414,0.2423,0.2426,0.2503,0.2511,0.2565,0.249,0.2643,0.2649,0.2653,0.2721,0.2733,0.2743,0,0,0,0,0,0.2116,0.2141,0.2162,0.2174,0.2232,0.227,0.228,0.2325,0.2351,0.2383,0.2429,0.2424,0.2541,0.2508,0.2516,0.2573,0.2641,0.2647,0.2653,0.2716,0.273,0.2742,0,0,0,0,0,0,0.2109,0.2151,0.2175,0.2214,0.2256,0.2284,0.2325,0.2351,0.2412,0.2436,0.2452,0.2464,0.255,0.2553,0.2516,0.2638,0.2593,0.2601,0.2638,0.2652,0.2662,0.2667,0.2493,0,0,0,0,0,0.212,0.2156,0.2193,0.2232,0.2257,0.23,0.2331,0.2363,0.2408,0.2438,0.2478,0.2526,0.2572,0.2606,0.2641,0.2703,0.2713,0.2749,0.276,0.2769,0.278,0.2853,0.2871,0.2676,0.2676,0.2676,0,0,0.2128,0.2159,0.2181,0.2235,0.2274,0.2315,0.2324,0.2386,0.2432,0.2439,0.2531,0.2567,0.2598,0.2672,0.2711,0.2687,0.2828,0.2777,0.2784,0.2791,0.2861,0.288,0.2897,0.268,0.2679,0.2679,0,0,0.2147,0.2194,0.2227,0.2267,0.2334,0.2359,0.2387,0.2445,0.2492,0.2569,0.2593,0.2666,0.2732,0.2767,0.279,0.2884,0.2883,0.2906,0.2966,0.3037,0.3053,0.3068,0.3091,0.3107,0.2911,0.2912,0.2912,0,0.2163,0.2205,0.2245,0.2287,0.233,0.2383,0.243,0.2477,0.2556,0.2605,0.2615,0.2752,0.2776,0.2868,0.2904,0.2909,0.2937,0.2909,0.3051,0.3065,0.3079,0.3099,0.3115,0.2916,0.2915,0.2915,0.2914,0,0.2191,0.2247,0.2274,0.2345,0.2394,0.2448,0.2509,0.2579,0.2643,0.269,0.2814,0.2858,0.2943,0.2964,0.2963,0.308,0.3063,0.3053,0.3012,0.3103,0.3118,0.3134,0.2922,0.292,0.2919,0.2918,0,0,0.2167,0.2274,0.229,0.2335,0.2435,0.2469,0.2566,0.2658,0.2729,0.2824,0.292,0.3015,0.3062,0.3092,0.3115,0.3172,0.3281,0.3164,0.3166,0.3176,0.3422,0.3213,0.321,0.3308,0.3311,0.3314,0.3387,0,0.2186,0.2267,0.2321,0.2411,0.2458,0.2545,0.2621,0.2718,0.2805,0.2907,0.2994,0.309,0.3104,0.3158,0.323,0.3274,0.3331,0.3261,0.3341,0.3342,0.3139,0.3225,0.3326,0.3399,0.3402,0.3405,0.3407,0,0.2185,0.2248,0.2335,0.245,0.2481,0.2548,0.2688,0.2767,0.2916,0.2986,0.3116,0.3177,0.3306,0.3286,0.3438,0.3402,0.3429,0.3445,0.3448,0.324,0.3164,0.3295,0.3436,0.3433,0.3431,0.3429,0.3428,0,0.2126,0.225,0.2323,0.2364,0.25,0.2574,0.2665,0.2809,0.2883,0.3055,0.3129,0.3282,0.338,0.3458,0.3524,0.3501,0.3653,0.3616,0.345,0.3434,0.3566,0.355,0.3716,0.3716,0.3716,0.3716,0.3715,0,0.2094,0.2155,0.2312,0.2349,0.2445,0.2563,0.2681,0.2785,0.2939,0.3028,0.3183,0.3271,0.3438,0.3539,0.3566,0.3561,0.3703,0.3472,0.3451,0.3592,0.3578,0.3576,0.3559,0.3718,0.3718,0.3717,0.3717,0,0.1994,0.2102,0.2185,0.2353,0.2415,0.2487,0.2674,0.2737,0.2918,0.3041,0.3103,0.3309,0.3444,0.3554,0.3677,0.3597,0.3607,0.3566,0.3704,0.3688,0.3324,0.331,0.3372,0.3366,0.336,0.3356,0.3352,0,0.1943,0.198,0.2162,0.2215,0.2298,0.2435,0.2508,0.2701,0.2767,0.3037,0.3066,0.3277,0.3393,0.3403,0.3536,0.3562,0.353,0.3492,0.3406,0.3321,0.3295,0.329,0.3284,0.3343,0.3342,0.334,0.3339,0,0.1834,0.1916,0.1984,0.2102,0.2193,0.2274,0.2413,0.2443,0.2661,0.2852,0.2965,0.3048,0.3194,0.3286,0.3335,0.3349,0.3488,0.3434,0.3444,0.3363,0.3287,0.3265,0.3265,0.332,0.3322,0.3324,0.3325,0,0.1752,0.1761,0.187,0.1952,0.2056,0.2085,0.2182,0.2281,0.238,0.2675,0.2718,0.2955,0.3169,0.3178,0.3225,0.3221,0.317,0.3049,0.3078,0.3101,0.2979,0.2839,0.2728,0,0,0,0,0,0.1661,0.1653,0.1713,0.1784,0.188,0.1951,0.2093,0.2193,0.2415,0.242,0.2563,0.2686,0.2795,0.2923,0.2865,0.3091,0.3165,0.3007,0.3035,0.3214,0.3236,0.3118,0,0,0,0,0,0,0.1593,0.1637,0.165,0.1634,0.166,0.1738,0.1822,0.1974,0.1997,0.2248,0.2326,0.2523,0.2668,0.2809,0.282,0.2852,0.2811,0.3158,0.315,0.3201,0.3221,0.3239,0.3125,0,0,0,0,0]},{"header":{"parameterUnit":"m.s-1","parameterCategory":2,"la1":30.2991,"la2":30.254,"lo1":-89.0895,"lo2":-89.0444,"dy":0.0017,"dx":0.0017,"nx":28,"ny":28,"refTime":"2024-05-23T09:00:00:Z","depth":"4","parameterNumber":3,"parameterNumberName":"V-component_of_CURRENTS"},"data":[0,0,0,0,0,0,0,0,0,0,0,0,0,0,0,0,0,0,0,0,0,0,0,0,0,0,0,0,0,0,0,0,0,0,0,0,0,0,0,0,0,0,0,0,0,0,0,0,0,0,0,0,0,0,0,0,0,0,0.0073,0.0073,0,0.0024,0.0024,0.0023,-0.0016,-0.0016,-0.0016,-0.0017,-0.0084,-0.0086,-0.0087,0,0,0,0,0,0,0,0,0,0,0,0,0,0.0083,0.0083,0.0073,0.0072,0.0072,0.0024,0.0024,0.0023,-0.0016,-0.0016,-0.0016,-0.0017,-0.0084,-0.0086,-0.0087,0,0,0,0,0,0,0,0,0,0,0,0,0,0.006,0.0083,0.0073,0.0048,0.0045,0.0025,0.0024,0.0023,-0.0016,-0.0016,-0.0016,-0.0017,-0.0083,-0.0085,-0.0088,-0.0092,0,0,-0.0095,-0.0096,0,0,0,0,0,0,0,0,0.0062,0.006,0.0052,0.0049,0.0046,0.0011,0.0002,-0.0016,-0.0015,0.0007,-0.0017,-0.0017,-0.0053,-0.0058,-0.0067,-0.0095,-0.0098,-0.0095,-0.0096,-0.0097,-0.0098,0,0,0,0,0,0,0,0.0063,0.0062,0.0053,0.0051,0.0048,0.0022,0.0018,-0.0002,-0.0021,0.0005,0.0002,-0.0002,-0.0055,-0.0065,-0.0069,-0.0099,-0.0095,-0.0097,-0.0098,-0.0099,-0.0125,-0.0125,0,0,0,0,0,0,0.0074,0.0063,0.0054,0.0051,0.0054,0.0022,0.0018,0.0022,-0.0021,-0.0027,-0.0002,-0.0004,-0.0061,-0.0066,-0.0072,-0.0059,-0.0097,-0.0099,-0.01,-0.0126,-0.0125,-0.0124,0,0,0,0,0,0,0.0075,0.0074,0.0056,0.0056,0.0052,0.0023,0.0027,0.0021,0.0015,-0.0025,-0.0032,-0.0001,-0.0061,-0.0068,-0.0082,-0.0063,-0.01,-0.0102,-0.0127,-0.0126,-0.0125,-0.0047,0,0,0,0,0,0,0.0076,0.0075,0.0082,0.0058,0.0053,0.0055,0.0027,0.0021,0.0013,0.001,-0.0027,-0.0034,-0.0062,-0.0078,-0.0084,-0.0067,-0.0104,-0.0127,-0.0126,-0.0125,-0.0051,-0.0044,-0.0038,0,0,0,0,0,0.0076,0.0092,0.0082,0.0081,0.0063,0.0056,0.0051,0.0027,0.0014,0.0019,-0.0008,-0.0033,-0.0074,-0.0079,-0.0086,-0.0069,-0.0128,-0.0127,-0.0125,-0.0053,-0.0045,-0.0038,0,0,0,0,0,0,0.0098,0.0089,0.0078,0.009,0.0077,0.005,0.0051,0.0035,0.0017,0.0014,-0.0026,-0.0034,-0.0041,-0.0065,-0.0069,-0.0074,-0.0105,-0.0105,-0.0048,-0.004,-0.0034,-0.002,-0.0106,0,0,0,0,0,0.0107,0.0117,0.01,0.0108,0.0106,0.008,0.0074,0.0059,0.004,0.0031,0.0005,-0.0022,-0.0041,-0.0048,-0.0072,-0.0071,-0.0111,-0.0065,-0.0058,-0.0053,-0.0047,-0.0091,-0.0088,-0.0119,-0.0119,-0.0119,0,0,0.0116,0.0113,0.0118,0.0114,0.0101,0.0111,0.0075,0.0074,0.0083,0.0027,0.0031,-0.0004,-0.0038,-0.004,-0.0044,-0.0055,-0.0066,-0.0051,-0.0046,-0.0043,-0.0089,-0.0086,-0.0083,-0.0118,-0.0119,-0.0119,0,0,0.0145,0.014,0.0159,0.0157,0.0148,0.0136,0.014,0.012,0.0112,0.0108,0.0071,0.005,0.0023,0.0003,-0.001,0.0018,-0.0035,0.0012,0.0062,0.002,0.0022,0.0023,-0.0027,-0.0031,0.0022,0.0022,0.0022,0,0.0154,0.0179,0.0162,0.0181,0.0186,0.0154,0.0176,0.0168,0.0145,0.0143,0.0121,0.0076,0.0045,0.0043,0.0052,0.0033,-0.0004,0.0038,0.0028,0.0029,0.0029,-0.0023,-0.0028,0.0026,0.0025,0.0025,0.0025,0,0.0197,0.0217,0.0229,0.0246,0.0249,0.0263,0.0253,0.0254,0.0237,0.022,0.0207,0.0159,0.0134,0.0122,0.0096,0.009,0.0059,0.0037,0.0011,0.0037,-0.002,-0.0027,0.0031,0.003,0.0029,0.0028,0,0,0.0215,0.0253,0.0258,0.0282,0.0286,0.0297,0.0317,0.0323,0.0338,0.0304,0.0311,0.0272,0.0237,0.0219,0.018,0.0146,0.0111,0.0101,0.0097,0.0055,0.001,-0.0002,-0.0011,0.0087,0.0086,0.0086,-0.0032,0,0.0252,0.0309,0.0314,0.0367,0.0396,0.0384,0.0412,0.0411,0.0394,0.0392,0.034,0.0329,0.0279,0.0269,0.0227,0.014,0.0098,0.0144,-0.0013,-0.0017,-0.0028,-0.0018,0.0084,-0.0037,-0.0039,-0.004,-0.0041,0,0.0289,0.0326,0.0388,0.0441,0.0452,0.0481,0.0512,0.0533,0.052,0.0504,0.0474,0.0423,0.0378,0.0326,0.0194,0.0226,0.0128,0.0052,0.0045,0.0004,-0.0041,-0.007,-0.0054,-0.0053,-0.0052,-0.0051,-0.005,0,0.0313,0.0376,0.0431,0.0448,0.0501,0.0531,0.0561,0.0567,0.0599,0.0576,0.0579,0.0502,0.0476,0.0346,0.0194,0.0191,0.0032,0.0006,-0.0101,-0.0105,-0.0094,-0.0095,-0.0095,-0.0095,-0.0095,-0.0095,-0.0094,0,0.0346,0.0391,0.0454,0.0486,0.0567,0.0582,0.0654,0.0666,0.0687,0.0734,0.0646,0.0647,0.048,0.037,0.0214,0.004,0.0044,-0.0093,-0.0131,-0.006,-0.0055,-0.01,-0.0099,-0.0099,-0.0098,-0.0097,-0.0096,0,0.036,0.0399,0.0472,0.0547,0.0583,0.0641,0.0737,0.0784,0.0792,0.0845,0.0845,0.0758,0.0617,0.0427,0.0214,0.0084,-0.0096,-0.0164,-0.0074,-0.0106,-0.0214,-0.0208,-0.0293,-0.0295,-0.0296,-0.0297,-0.0298,0,0.0372,0.0413,0.0521,0.0583,0.0625,0.0718,0.0791,0.0837,0.0891,0.0916,0.0943,0.083,0.0745,0.0442,0.0224,-0.008,-0.0125,-0.0228,-0.022,-0.0204,-0.0233,-0.0225,-0.0217,-0.0299,-0.03,-0.03,-0.03,0,0.0399,0.0437,0.0504,0.0632,0.0723,0.0831,0.0934,0.0979,0.104,0.1043,0.1034,0.0879,0.0716,0.0464,0.0227,0.0006,-0.0166,-0.024,-0.024,-0.0234,-0.0212,-0.0238,-0.0229,-0.0304,-0.0303,-0.0303,-0.0303,0,0.0425,0.0473,0.0568,0.0682,0.0801,0.0918,0.0966,0.1042,0.1098,0.112,0.1115,0.0934,0.0837,0.0507,0.0287,0.007,0.0009,-0.0069,-0.0079,-0.0077,0.0016,0.0077,0.0044,0,0,0,0,0,0.0454,0.0518,0.0618,0.0747,0.0861,0.0941,0.1058,0.1095,0.1145,0.1158,0.1146,0.0996,0.0688,0.0546,0.033,0.0233,-0.0055,-0.0033,-0.0154,-0.0325,-0.0321,-0.025,0,0,0,0,0,0,0.0478,0.0571,0.0619,0.0782,0.0877,0.1015,0.1093,0.113,0.1136,0.1151,0.0992,0.093,0.0624,0.0821,0.0325,0.0257,0.0145,-0.0174,-0.0179,-0.0328,-0.0324,-0.032,-0.0246,0,0,0,0,0]}]]